Regional Weather Roundup
Issued by NWS State College, PA

Home | Current Version | Previous Version | Text Only | Print | Product List | Glossary On
Versions: 1 2 3 4 5 6 7 8 9 10 11 12 13 14 15 16 17 18 19 20 21 22 23 24 25 26 27 28 29 30 31 32 33 34 35 36 37 38 39 40 41 42 43 44 45 46 47 48 49 50
000
ASUS41 KCTP 251010
RWRCTP

REGIONAL WEATHER ROUNDUP
NATIONAL WEATHER SERVICE STATE COLLEGE PA
600 AM EDT MON MAY 25 2015

Note: "fair" indicates few or no clouds below 12,000 feet with no
significant weather and/or obstructions to visibility.

* = STATION THAT DOES NOT REPORT PRECIPITATION /E.G. RAIN...SNOW...ETC/
    THUNDER OR FOG.

PAZ002>004-007>009-013>016-020>023-029>032-251100-
WESTERN PENNSYLVANIA

CITY           SKY/WX    TMP DP  RH WIND       PRES   REMARKS
ERIE           MOCLDY    68  45  43 S13       30.10S
MEADVILLE      CLEAR     64  45  49 VRB3      30.15R
FRANKLIN*      CLEAR     55  45  67 S8        30.19R
NEW CASTLE     FAIR      59  51  74 CALM      30.17R
BEAVER COUNTY  NOT AVBL
BUTLER*        CLEAR     63  48  59 S7        30.20S
PITTSBURGH INT PTCLDY    61  50  67 S6        30.17S
PITTSBURGH     CLEAR     62  48  60 S9        30.18S
INDIANA*       CLEAR     54  52  94 CALM      30.24S
LATROBE        CLEAR     55  54  94 CALM      30.22S
WASHINGTON CO* CLEAR     52  48  87 CALM      30.21S
$$

PAZ004>006-010>012-017>019-024>028-033>037-041-042-045-046-049>053-251100-
CENTRAL PENNSYLVANIA

CITY           SKY/WX    TMP DP  RH WIND       PRES   REMARKS
BRADFORD       PTCLDY    54  46  74 SE3       30.21S
DUBOIS         MOCLDY    63  48  58 S5        30.20S
CLEARFIELD     MOCLDY    54  48  80 CALM      30.22S
JOHNSTOWN      CLEAR     60  49  66 SW7       30.24R
ALTOONA        PTCLDY    57  49  74 CALM      30.23R
STATE COLLEGE  CLEAR     57  48  72 CALM      30.22R
WILLIAMSPORT   CLOUDY    58  52  80 CALM      30.20S
SELINSGROVE    PTCLDY    57  54  89 CALM      30.22R
FT INDIANTOWN  MOCLDY    55  55 100 NE2       30.23F FOG
CAPITAL CITY   CLEAR     59  55  87 CALM      30.22F
HARRISBURG     PTCLDY    62  57  83 CALM      30.22S
YORK           CLEAR     59  54  83 CALM      30.22S
$$

PAZ038>040-043-044-047-048-054-055-060>062-067>071-251100-
EASTERN PENNSYLVANIA

CITY           SKY/WX    TMP DP  RH WIND       PRES   REMARKS
SCRANTON       CLOUDY    63  50  62 CALM      30.23F
MOUNT POCONO   CLOUDY    62  51  67 CALM      30.27S
ALLENTOWN      CLOUDY    59  50  72 CALM      30.25S
QUAKERTOWN*    PTSUNNY   57  55  94 CALM      30.27R
READING        PTCLDY    64  56  75 S3        30.23S
LANCASTER      CLEAR     58  57  97 SE3       30.23F FOG
COATESVILLE    SUNNY     57  57 100 CALM      30.27S
POTTSTOWN      PTCLDY    61  57  87 S3        30.27S
BLUE BELL      MOCLDY    63  57  82 CALM      30.26S
DOYLESTOWN     CLOUDY    60  56  86 CALM      30.26R
WILLOW GROVE   NOT AVBL
NORTH PHILA    MOCLDY    64  54  69 S3        30.28S
PHILADELPHIA   MOCLDY    65  57  75 S6        30.27S
$$



USA.gov is the U.S. government's official web portal to all federal, state and local government web resources and services.